Temperature
10 9 9 9 10 10 11 12 12 13 12 12 12 12 12 12 12 12 12 12 12 12 11 11 11 11 11 11 11 11 11 11 11 11 12 12 12 12 13 13 13 13 13
9 9 8 8 8 7 8 9 10 11 11 11 11 11 11 11 12 12 12 12 12 11 11 11 11 11 11 11 10 10 11 10 11 11 11 11 12 12 12 12 13 13 13
9 9 8 8 7 7 6 6 7 7 8 8 9 10 10 10 11 11 11 11 11 10 10 10 10 10 10 10 10 10 10 10 10 10 10 10 11 11 11 11 11 12 12
9 8 8 7 7 7 6 6 6 6 6 7 7 8 8 9 10 10 11 10 10 10 9 10 10 10 10 9 9 9 9 9 9 9 9 10 10 10 10 10 10 10 10
8 8 8 7 7 6 6 6 6 6 5 5 6 6 7 7 8 9 10 10 10 9 9 9 9 9 9 8 8 9 9 9 9 9 9 9 9 10 10 10 10 10 10
8 7 7 7 6 6 6 6 6 5 5 5 4 4 5 6 7 8 9 9 9 9 9 9 8 8 8 8 8 8 8 8 8 8 8 8 8 8 9 9 9 9 9
7 7 7 6 6 6 6 6 5 5 5 4 4 3 3 4 5 6 7 8 9 9 9 8 8 7 7 7 7 7 7 7 7 7 7 7 7 7 8 8 8 9 8
7 7 6 6 6 6 5 5 5 5 4 4 3 3 2 3 4 5 6 7 8 7 8 8 7 7 7 7 7 6 6 6 7 7 7 7 7 7 7 7 7 8 8
6 6 6 5 5 4 4 4 4 4 3 3 2 2 2 2 2 3 5 6 7 6 6 7 7 7 6 6 6 6 6 6 6 6 6 6 6 6 7 7 7 7 7
5 5 4 4 3 3 2 2 3 3 2 2 1 1 1 1 2 2 3 5 6 6 5 5 5 6 6 6 5 5 5 5 5 5 5 6 6 6 6 6 6 6 6
4 4 3 2 2 1 1 1 1 1 1 0 0 -0 -1 -1 -0 1 2 4 5 6 5 4 4 4 5 5 5 5 5 4 4 4 4 4 5 5 5 5 6 6 6
3 3 2 1 0 -1 -1 -0 -0 -0 -1 -1 -1 -1 -2 -2 -2 -1 1 2 3 4 4 3 3 3 3 3 4 4 4 3 2 2 2 3 3 4 4 4 5 5 5
2 1 0 -0 -1 -1 -2 -2 -1 -2 -2 -2 -2 -3 -3 -4 -3 -2 -1 1 2 2 2 1 1 2 2 2 3 3 2 1 1 1 1 2 2 2 3 3 4 4 4
0 -0 -1 -2 -2 -2 -2 -2 -2 -3 -3 -3 -4 -4 -5 -5 -4 -3 -2 -1 -0 0 0 -0 -0 -0 0 0 1 1 0 0 0 0 0 1 1 1 2 2 2 3 3
-1 -2 -3 -3 -3 -3 -3 -3 -4 -4 -5 -5 -5 -5 -5 -5 -5 -4 -3 -2 -1 -1 -1 -1 -1 -1 -1 -1 -1 -1 -1 -1 -1 -1 -1 -0 -0 -0 -0 0 1 1 2
-3 -4 -4 -4 -4 -4 -5 -5 -5 -6 -6 -6 -6 -6 -5 -5 -5 -4 -3 -3 -2 -2 -2 -2 -2 -2 -3 -3 -3 -3 -3 -3 -2 -2 -2 -2 -2 -2 -2 -1 -1 -1 -0
-4 -5 -6 -6 -6 -7 -7 -7 -7 -7 -7 -7 -7 -6 -5 -5 -5 -5 -4 -4 -4 -4 -3 -3 -3 -4 -4 -4 -4 -4 -4 -4 -4 -4 -4 -4 -5 -4 -3 -3 -2 -2 -2
-6 -7 -7 -7 -7 -7 -8 -8 -8 -8 -8 -8 -7 -7 -6 -6 -6 -6 -6 -5 -5 -5 -5 -5 -5 -5 -6 -6 -5 -5 -5 -5 -5 -5 -5 -5 -6 -5 -4 -4 -4 -4 -4
-7 -8 -8 -8 -8 -8 -9 -9 -9 -8 -8 -8 -8 -8 -8 -7 -7 -7 -7 -7 -6 -6 -6 -6 -7 -7 -7 -7 -7 -6 -7 -7 -7 -7 -7 -7 -7 -7 -6 -5 -5 -5 -6
-8 -9 -9 -9 -9 -10 -10 -10 -10 -10 -9 -9 -9 -9 -9 -8 -8 -8 -8 -8 -8 -7 -7 -8 -8 -8 -8 -8 -8 -8 -7 -8 -8 -8 -8 -9 -8 -8 -7 -7 -6 -6 -6
-9 -9 -9 -10 -11 -11 -11 -11 -10 -10 -10 -10 -9 -10 -9 -9 -9 -9 -9 -9 -9 -8 -8 -8 -8 -9 -9 -9 -9 -9 -8 -8 -9 -9 -9 -9 -9 -9 -8 -8 -7 -7 -7
-10 -10 -10 -11 -11 -11 -11 -11 -11 -11 -10 -10 -10 -10 -10 -10 -10 -10 -10 -10 -9 -9 -9 -9 -9 -9 -9 -9 -9 -10 -10 -9 -9 -9 -9 -9 -9 -9 -9 -8 -8 -8 -7
-11 -11 -11 -12 -12 -12 -12 -12 -12 -11 -11 -11 -11 -11 -11 -11 -11 -10 -10 -10 -10 -10 -10 -10 -10 -10 -10 -10 -10 -10 -10 -10 -10 -10 -10 -10 -10 -9 -9 -9 -10 -9 -8
-11 -11 -12 -12 -12 -12 -12 -12 -12 -11 -11 -12 -12 -12 -12 -12 -12 -11 -11 -11 -11 -11 -11 -11 -11 -11 -11 -11 -10 -10 -10 -10 -10 -10 -11 -11 -11 -11 -11 -11 -10 -10 -10
-11 -12 -12 -13 -13 -13 -13 -13 -13 -13 -13 -13 -13 -13 -13 -13 -13 -13 -12 -12 -12 -12 -12 -12 -12 -12 -12 -12 -11 -11 -11 -10 -10 -11 -11 -11 -11 -11 -11 -11 -11 -11 -11
-11 -12 -13 -13 -13 -13 -13 -14 -14 -14 -14 -14 -14 -14 -14 -14 -14 -14 -14 -13 -13 -12 -12 -13 -13 -13 -13 -12 -12 -12 -11 -11 -12 -12 -12 -12 -12 -12 -12 -12 -12 -12 -12
Wind_Speed
12 13 15 16 17 19 20 21 20 19 16 11 8 7 6 6 5 5 4 4 5 6 4 3 4 2 2 4 5 3 3 2 2 2 3 3 5 6 5 4 4 6 7
12 12 13 13 13 13 15 17 18 18 17 14 12 9 8 6 6 4 2 3 5 5 4 4 3 3 1 3 4 2 2 2 2 1 1 2 3 4 4 3 3 4 4
12 11 11 11 10 10 10 13 13 15 17 17 13 13 9 6 5 5 4 5 6 5 4 4 3 2 0 2 3 2 2 2 3 2 1 0 2 2 1 0 1 2 3
10 10 10 10 10 9 8 9 10 11 12 15 17 19 15 11 9 7 6 7 8 6 4 3 3 3 2 2 3 1 1 2 2 1 1 1 1 2 1 2 2 4 5
11 12 11 10 10 10 9 10 11 10 11 13 15 17 17 15 12 10 9 7 7 7 5 3 3 3 2 2 3 2 2 2 1 1 1 2 3 2 2 0 1 3 3
13 13 12 11 11 12 12 12 12 10 9 10 11 13 18 19 19 15 12 7 4 4 5 3 3 2 1 2 2 2 1 1 0 1 2 2 1 1 1 1 1 2 2
14 14 15 14 14 13 13 12 13 11 9 9 11 12 15 18 20 17 12 9 4 4 6 5 3 2 2 1 2 3 3 2 1 2 1 1 2 1 1 2 1 1 1
15 15 14 13 13 14 15 13 13 11 9 10 11 12 15 15 16 18 14 7 2 2 2 6 4 3 4 3 2 2 3 3 2 2 2 2 2 2 2 2 2 1 1
16 16 16 15 16 17 17 15 14 11 10 10 12 14 15 18 21 21 17 6 3 4 6 6 6 5 4 3 3 2 4 4 3 2 2 3 3 3 3 3 4 4 3
17 16 16 17 17 19 18 18 16 12 10 10 12 15 17 19 21 22 18 8 7 8 6 5 4 3 3 4 4 2 3 5 4 3 4 3 3 4 4 4 4 4 5
17 16 16 17 18 20 20 19 17 14 12 13 13 15 16 18 19 20 19 7 5 9 9 7 3 2 3 4 3 3 3 4 5 5 4 5 4 3 3 3 4 4 4
17 17 19 18 18 20 19 17 15 15 15 15 15 15 17 18 18 19 17 7 3 7 8 8 6 5 4 4 4 5 6 5 4 5 5 5 4 4 3 2 2 3 4
18 20 20 20 19 19 19 18 15 16 16 16 16 16 17 18 18 18 14 7 4 5 5 6 7 7 6 6 7 9 8 8 9 9 8 8 8 8 7 7 5 3 2
21 22 22 21 19 18 18 17 16 16 16 16 16 17 17 17 16 15 13 9 4 2 3 5 7 8 8 8 9 9 8 9 9 9 8 8 8 7 7 7 7 6 5
23 24 25 22 19 18 17 16 15 16 16 15 15 16 17 16 15 13 12 11 7 4 5 7 8 9 9 9 9 8 8 8 8 7 7 8 10 12 9 7 7 7 6
23 24 24 23 20 18 17 16 16 16 15 15 15 16 16 15 15 14 12 10 10 11 11 9 9 9 9 15 15 10 7 7 7 6 5 4 7 9 9 9 8 8 6
21 21 21 20 18 17 16 16 15 14 14 14 15 16 17 14 14 15 15 13 12 13 13 12 11 11 12 16 15 13 7 7 7 8 8 7 6 8 6 6 3 4 6
19 18 18 17 17 17 16 14 13 13 13 13 14 15 17 15 13 14 14 11 10 9 9 9 8 8 11 14 13 10 7 6 7 8 8 8 7 7 8 7 4 2 4
16 16 15 14 15 15 15 12 10 10 10 11 11 11 13 14 13 13 12 9 7 6 6 6 7 6 9 13 12 10 4 6 6 7 7 7 7 10 11 9 7 7 8
15 15 15 14 14 14 15 12 11 11 11 10 9 9 10 10 10 10 8 7 6 5 4 4 5 7 7 11 12 11 7 7 5 4 7 10 9 10 10 8 8 9 8
14 15 14 11 11 13 13 12 12 13 13 11 10 10 10 10 10 10 8 8 7 6 5 4 4 5 6 9 11 12 7 6 5 5 6 7 10 9 9 9 7 7 6
15 15 13 12 10 11 11 11 13 14 15 12 10 10 10 10 10 9 9 8 9 8 7 6 5 5 5 6 7 8 6 5 5 5 5 5 8 8 7 6 6 7 7
13 13 12 11 10 9 9 11 12 15 15 14 11 10 11 10 10 8 8 8 8 8 9 8 7 7 6 7 10 8 8 5 1 2 3 4 6 6 5 6 7 7 5
11 10 11 11 11 9 9 10 12 14 14 14 13 11 9 9 10 10 7 6 6 6 8 8 8 7 7 7 7 6 7 9 4 1 1 1 3 3 4 5 5 4 4
10 9 9 9 11 12 11 10 11 13 12 12 12 12 11 8 7 9 9 8 4 6 6 5 6 7 6 10 15 11 5 2 2 2 1 1 1 2 3 3 4 4 4
8 9 9 9 10 12 12 12 12 12 13 13 12 10 10 9 8 7 9 14 15 17 15 11 9 8 11 15 15 14 8 4 4 3 2 1 1 1 2 2 2 2 3
Wind_Direction
29 24 22 19 19 14 8 3 358 351 346 338 329 316 303 290 272 252 254 271 271 277 268 274 286 277 274 261 250 256 288 284 346 309 287 274 238 225 222 230 242 220 204
21 21 20 16 17 15 6 359 357 349 344 337 328 311 296 292 293 285 278 297 286 278 269 255 261 250 237 320 297 261 256 241 193 223 295 303 292 249 209 211 238 219 180
14 11 11 8 5 9 360 352 349 350 346 339 334 329 314 297 286 280 260 256 263 260 261 280 287 296 146 298 294 295 266 261 233 192 155 228 289 322 349 88 42 122 128
9 2 358 357 354 352 343 339 343 347 348 347 345 339 327 312 291 268 235 217 230 237 227 254 289 306 307 294 286 259 50 58 357 1 86 90 69 47 27 37 84 90 90
5 356 347 346 343 338 335 338 339 342 346 349 346 339 330 322 315 309 290 237 208 210 203 205 275 291 299 303 328 20 43 52 9 339 30 43 40 32 81 138 112 70 74
359 348 341 342 339 338 337 335 329 328 336 340 339 334 328 323 316 308 299 276 232 197 182 182 225 256 349 14 13 4 344 254 317 34 52 99 126 215 150 157 179 158 172
352 345 345 342 333 327 324 321 317 316 327 337 334 329 323 319 311 300 290 280 253 214 186 170 188 213 194 126 21 354 337 297 240 208 238 239 220 215 183 162 194 142 182
346 339 335 330 324 325 324 321 320 317 333 340 336 333 328 321 311 301 288 282 300 298 189 146 120 74 60 58 37 359 320 313 286 224 226 254 254 242 215 181 161 152 302
343 339 337 335 335 335 330 329 326 328 342 346 343 335 331 323 314 305 291 258 132 71 39 52 70 62 55 45 36 30 340 342 349 320 247 233 235 237 234 215 184 174 201
344 342 341 341 342 340 336 336 331 336 344 350 346 333 326 320 317 313 297 254 156 130 110 61 41 47 50 44 42 22 359 356 340 332 314 284 252 236 224 214 214 198 188
342 343 346 342 344 341 334 330 331 340 349 352 342 329 322 319 317 315 307 270 158 136 132 129 140 117 79 58 49 28 12 343 313 303 293 288 289 281 249 220 211 213 197
343 348 345 340 343 338 333 333 342 353 353 346 336 331 327 324 322 318 313 310 112 119 127 134 145 133 100 76 71 64 53 41 26 18 25 11 5 1 345 316 243 227 216
345 348 343 340 338 336 336 341 352 354 347 341 338 338 336 330 324 322 320 336 32 82 105 128 136 125 112 97 82 80 72 65 59 52 48 36 39 35 26 29 22 6 1
348 345 341 337 335 337 340 346 353 352 344 342 343 342 339 335 330 329 334 341 3 73 110 118 115 111 105 95 85 81 79 74 66 57 49 43 43 44 42 40 23 17 27
346 345 341 336 339 346 351 353 353 349 345 345 347 346 343 339 337 336 338 345 0 45 84 98 94 92 88 87 89 84 83 81 73 58 47 44 43 48 54 56 40 32 35
345 345 342 345 352 356 354 354 353 349 346 347 348 349 347 347 350 355 358 8 27 39 48 63 79 85 87 85 81 80 76 80 77 65 47 60 53 41 42 48 50 50 52
344 345 347 349 352 354 352 353 351 349 348 349 350 352 351 355 7 11 18 29 37 40 39 41 49 57 68 72 67 64 62 66 60 50 31 23 42 45 17 8 36 78 79
345 346 346 348 352 351 349 348 348 348 347 349 352 355 356 4 13 15 16 25 33 38 39 37 39 45 50 58 56 53 52 71 73 68 45 24 34 28 14 350 349 71 83
348 346 347 349 348 345 339 335 339 339 340 345 347 350 355 1 7 11 11 13 26 37 40 38 26 31 38 42 46 42 36 63 72 85 74 48 28 26 22 10 15 42 36
349 347 346 347 348 342 337 336 340 340 340 338 340 344 351 352 357 1 3 360 6 21 38 36 25 37 29 33 41 39 44 48 46 73 89 59 39 25 24 28 39 40 18
350 350 348 346 340 334 336 342 347 347 341 341 346 349 353 351 354 353 354 354 356 359 5 1 10 49 43 32 38 47 48 25 16 47 72 50 31 19 23 44 39 19 12
351 350 346 340 331 328 339 347 350 346 343 344 351 352 353 353 357 350 353 356 358 357 357 1 14 34 39 42 29 28 38 33 22 56 59 27 17 11 21 35 16 22 36
348 346 341 332 326 330 346 350 348 346 347 346 347 351 352 350 348 348 358 358 4 6 2 6 15 14 12 7 12 9 2 351 10 104 74 27 21 16 6 2 26 49 48
344 340 333 329 328 333 347 352 349 346 347 346 345 345 350 352 352 350 356 0 2 5 0 1 2 359 358 358 359 351 339 336 334 189 160 29 23 22 7 23 35 37 25
335 330 326 328 335 341 344 353 351 347 346 344 344 344 346 345 351 351 346 348 348 346 352 353 351 347 341 330 333 340 337 359 51 47 357 53 86 49 30 31 32 28 20
322 323 323 333 341 342 344 352 351 347 345 345 342 342 345 346 350 348 348 353 355 357 0 355 349 341 334 332 338 339 352 16 5 3 336 346 68 61 44 28 16 4 356
Height
1517 1513 1509 1505 1502 1500 1497 1494 1491 1488 1485 1483 1481 1480 1479 1477 1475 1473 1471 1470 1468 1467 1467 1466 1467 1467 1467 1467 1466 1465 1465 1464 1464 1464 1464 1465 1466 1467 1468 1470 1472 1474 1476
1519 1516 1513 1509 1505 1502 1499 1495 1491 1488 1485 1482 1478 1476 1475 1473 1471 1469 1467 1465 1464 1464 1463 1462 1462 1463 1462 1463 1463 1462 1462 1461 1461 1461 1461 1462 1463 1462 1463 1465 1467 1469 1471
1520 1518 1514 1511 1507 1503 1500 1496 1491 1487 1483 1479 1474 1471 1469 1467 1466 1464 1462 1460 1459 1459 1458 1458 1459 1459 1458 1458 1459 1459 1459 1459 1459 1458 1459 1460 1459 1459 1460 1461 1463 1465 1467
1520 1518 1514 1511 1507 1503 1499 1494 1488 1485 1481 1476 1470 1467 1464 1462 1461 1459 1456 1454 1454 1454 1453 1454 1455 1455 1454 1455 1455 1455 1455 1456 1456 1456 1457 1458 1458 1458 1458 1460 1461 1462 1464
1519 1517 1514 1510 1505 1500 1495 1490 1485 1481 1477 1473 1469 1464 1461 1458 1455 1453 1451 1449 1448 1448 1449 1449 1451 1451 1451 1451 1451 1451 1451 1452 1453 1454 1454 1455 1456 1456 1457 1458 1460 1461 1462
1518 1515 1511 1506 1500 1495 1491 1487 1483 1479 1474 1470 1466 1462 1457 1453 1449 1447 1446 1445 1444 1443 1443 1444 1446 1447 1447 1447 1447 1447 1447 1448 1449 1450 1451 1452 1453 1454 1455 1456 1458 1459 1461
1515 1511 1506 1501 1498 1495 1490 1486 1481 1476 1471 1466 1462 1458 1454 1449 1444 1442 1441 1440 1438 1437 1437 1438 1441 1442 1442 1443 1443 1444 1444 1445 1446 1447 1448 1449 1451 1451 1452 1453 1455 1456 1458
1516 1511 1507 1502 1497 1492 1487 1482 1477 1472 1466 1461 1457 1453 1449 1444 1439 1435 1434 1433 1432 1432 1432 1432 1435 1437 1438 1438 1439 1439 1440 1441 1442 1443 1445 1446 1447 1448 1449 1450 1452 1453 1454
1516 1511 1506 1501 1496 1490 1484 1479 1473 1467 1462 1457 1453 1448 1443 1438 1432 1427 1425 1425 1424 1426 1427 1428 1430 1432 1433 1434 1434 1434 1435 1436 1437 1438 1440 1441 1442 1443 1445 1447 1449 1450 1451
1515 1510 1505 1500 1494 1487 1481 1475 1470 1464 1459 1454 1449 1443 1437 1431 1425 1419 1416 1415 1415 1417 1421 1423 1426 1428 1429 1429 1429 1429 1430 1431 1432 1434 1435 1436 1437 1438 1440 1441 1443 1445 1447
1513 1508 1502 1497 1491 1484 1478 1471 1466 1461 1455 1450 1444 1438 1431 1424 1418 1412 1408 1407 1407 1408 1411 1415 1420 1423 1424 1424 1423 1423 1423 1424 1426 1428 1428 1430 1431 1432 1434 1435 1437 1439 1441
1512 1507 1501 1495 1488 1482 1475 1469 1463 1457 1451 1445 1439 1432 1425 1418 1411 1406 1403 1401 1400 1401 1404 1407 1412 1416 1417 1418 1417 1417 1417 1418 1420 1421 1422 1423 1425 1426 1427 1429 1431 1433 1435
1510 1505 1500 1494 1487 1480 1473 1466 1460 1454 1447 1441 1433 1426 1420 1413 1408 1403 1399 1397 1396 1396 1398 1401 1404 1408 1411 1412 1411 1411 1413 1414 1415 1416 1418 1419 1420 1420 1422 1423 1425 1427 1429
1510 1504 1498 1492 1485 1478 1471 1465 1458 1452 1445 1438 1431 1424 1418 1412 1407 1402 1398 1396 1394 1394 1395 1397 1399 1402 1404 1406 1406 1408 1409 1410 1411 1413 1415 1415 1416 1416 1417 1419 1420 1422 1423
1509 1504 1497 1490 1482 1476 1470 1464 1457 1451 1444 1437 1431 1425 1419 1413 1408 1403 1399 1397 1395 1395 1396 1397 1398 1399 1400 1401 1403 1405 1406 1406 1408 1410 1411 1412 1412 1413 1414 1415 1416 1417 1418
1509 1503 1496 1489 1482 1475 1469 1463 1457 1451 1445 1439 1432 1427 1421 1416 1412 1407 1403 1400 1398 1398 1398 1399 1399 1399 1399 1400 1401 1403 1404 1404 1405 1406 1408 1409 1410 1410 1411 1412 1413 1414 1415
1508 1502 1496 1490 1483 1476 1470 1463 1458 1452 1446 1441 1435 1430 1425 1420 1416 1412 1409 1406 1404 1403 1402 1401 1401 1402 1401 1400 1401 1402 1403 1403 1404 1405 1407 1408 1408 1409 1410 1410 1411 1411 1412
1507 1501 1495 1489 1483 1476 1470 1464 1458 1453 1447 1442 1437 1432 1428 1424 1420 1416 1414 1412 1409 1407 1406 1405 1405 1404 1403 1401 1401 1402 1402 1403 1403 1404 1405 1406 1406 1408 1408 1409 1409 1410 1410
1507 1501 1495 1489 1482 1476 1470 1464 1459 1453 1448 1443 1439 1435 1430 1427 1423 1420 1417 1415 1413 1411 1410 1409 1407 1406 1403 1402 1401 1402 1402 1402 1403 1403 1403 1404 1405 1405 1405 1406 1406 1407 1407
1506 1500 1494 1488 1481 1475 1470 1465 1460 1454 1449 1445 1441 1437 1433 1429 1426 1423 1420 1417 1415 1413 1411 1409 1407 1405 1404 1403 1402 1402 1401 1402 1403 1403 1403 1403 1404 1403 1402 1403 1403 1403 1404
1505 1499 1493 1487 1482 1476 1471 1466 1460 1455 1451 1448 1443 1439 1434 1430 1427 1423 1420 1417 1415 1412 1410 1408 1407 1406 1405 1404 1403 1402 1402 1402 1403 1404 1403 1402 1402 1402 1401 1401 1401 1402 1402
1503 1498 1492 1487 1483 1477 1472 1467 1461 1457 1452 1449 1444 1440 1435 1432 1428 1424 1421 1418 1415 1412 1411 1409 1408 1407 1406 1405 1404 1403 1403 1403 1403 1403 1403 1402 1401 1401 1401 1401 1401 1401 1401
1503 1497 1492 1487 1483 1479 1473 1468 1463 1457 1452 1448 1445 1440 1436 1432 1429 1425 1422 1418 1416 1413 1411 1409 1408 1407 1406 1406 1405 1404 1404 1403 1403 1402 1402 1401 1401 1400 1400 1400 1400 1399 1399
1502 1497 1492 1488 1483 1479 1474 1469 1463 1457 1452 1448 1444 1440 1436 1432 1428 1425 1423 1419 1416 1413 1411 1409 1407 1406 1406 1405 1404 1403 1402 1402 1401 1401 1400 1400 1400 1400 1400 1399 1398 1397 1397
1501 1496 1492 1488 1484 1479 1474 1468 1462 1457 1452 1447 1443 1439 1435 1431 1428 1424 1422 1420 1417 1415 1412 1409 1407 1406 1404 1404 1403 1402 1400 1400 1400 1399 1399 1399 1398 1398 1397 1396 1396 1395 1394
1500 1495 1492 1488 1483 1478 1473 1468 1462 1457 1452 1447 1442 1438 1434 1431 1427 1424 1420 1418 1417 1414 1411 1409 1407 1405 1403 1402 1400 1399 1398 1397 1397 1397 1396 1396 1396 1395 1394 1393 1392 1392 1391